Location: Geroldsau
(48.7259°N, 8.2466°E)
Time: 15:25:26
(UTC+00:00)

USA 307 - Pass Details

Date: 20 June 2021
Orbit: 565 x 576 km, 54.0° (Epoch: 17 July)

Event Time Altitude Azimuth Distance (km) Brightness Sun altitude
Exits shadow 02:13:23 - 244° (WSW) 1,914 5.0 -9.0°
Reaches altitude 10° 02:13:30 10° 244° (WSW) 1,866 5.0 -9.0°
Maximum altitude 02:17:45 84° 332° (NNW) 576 2.9 -8.6°
Drops below altitude 10° 02:22:01 10° 62° (ENE) 1,868 6.8 -8.1°
Sets 02:24:16 0° 63° (ENE) 2,766 7.8 -7.9°
